Regional Weather Roundup
Issued by NWS Midland/Odessa, TX

Home | Current Version | Previous Version | Text Only | Print | Product List | Glossary On
Versions: 1 2 3 4 5 6 7 8 9 10 11 12 13 14 15 16 17 18 19 20 21 22 23 24 25 26 27 28 29 30 31 32 33 34 35 36 37 38 39 40 41 42 43 44 45 46 47 48 49 50
000
ASUS44 KMAF 210010
RWRMAF
MIDLAND AREA WEATHER ROUNDUP
NATIONAL WEATHER SERVICE MIDLAND TX
700 PM CDT FRI OCT 20 2017

...IN SOUTHWEST TEXAS AND SOUTHEAST NEW MEXICO...

CITY           SKY/WX    TMP DP  RH WIND       PRES   REMARKS
ALPINE         CLEAR     78  43  29 SW5       30.00S
ANDREWS        FAIR      74  55  51 S8        29.87S
ARTESIA        CLEAR     77  52  41 SW12      29.82S
BIG SPRING     CLEAR     74  58  56 S8        29.89F
CARLSBAD       PTCLDY    78  56  46 S6        29.80F
DRYDEN           N/A     75  62  64 SE12      29.88S
FORT STOCKTON  CLEAR     78  55  44 SE15G24   29.86S
GUAD PASS      CLEAR     75  35  23 SW28G40   29.94S
HOBBS          CLEAR     73  54  49 S10G20    29.85F
LAMESA         FAIR      73  57  56 SE18      29.87S
MARFA          CLEAR     76  37  24 W7        29.99S
MIDLAND AIRPK  CLEAR     76  57  51 S13       29.87F
MIDLAND INTL   CLEAR     77  56  48 S17       29.86F
ODESSA         NOT AVBL
PECOS          CLEAR     80  56  43 SE5       29.82S
PRESIDIO       FAIR      87  40  19 CALM      29.86F
SEMINOLE       CLEAR     75  55  49 S10G17    29.87S
SNYDER         CLEAR     76  58  54 S9        29.88S
WINK           CLEAR     79  55  43 SE9       29.82F
$$
...OTHER STATIONS IN TEXAS...

CITY           SKY/WX    TMP DP  RH WIND       PRES   REMARKS
ABILENE        CLEAR     76  60  57 S14       29.86F
AMARILLO       CLEAR     73  53  49 S21       29.79S
AUSTIN         MOCLDY    76  69  79 S3        29.90F
BROWNSVILLE    CLEAR     82  71  69 SE9       29.88F
CORPUS CHRISTI MOCLDY    79  72  79 E16       29.88F
DALLAS FTW     MOCLDY    80  66  62 S21G26    29.89R
DEL RIO        PTCLDY    77  65  66 SE12      29.87S
EL PASO        PTCLDY    84  36  18 W12       29.84S
HOUSTON INT    MOCLDY    74  73  97 E12       29.94F
LUBBOCK        PTCLDY    74  57  55 S23G30    29.82F
SAN ANGELO     CLEAR     75  57  53 S12       29.89S
SAN ANTONIO    CLOUDY    77  66  68 S3        29.93R
WACO           PTCLDY    80  66  62 SE10      29.90R
WICHITA FALLS  PTCLDY    73  57  57 S20       29.76F
$$
...OTHER LOCATIONS IN NEW MEXICO...

CITY           SKY/WX    TMP DP  RH WIND       PRES   REMARKS
ALAMOGORDO     CLEAR     73  46  38 S8        29.88F
ALBUQUERQUE    PTCLDY    72  45  37 S22       29.81F
CANNON AFB     CLEAR     72  53  51 S15       29.83S
CLOVIS         CLEAR     70  52  52 SW10      29.83S
HOLLOMAN AFB   CLEAR     76  45  32 S9        29.87F
ROSWELL        CLEAR     78  44  29 SW13      29.80R
RUIDOSO        CLEAR     63  39  42 SW21G30   30.01R
SANTA FE       CLEAR     66  40  38 SW12      29.85F
TRUTH OR CONSE CLEAR     78  29  16 W16G28    29.85F
TUCUMCARI      CLEAR     75  49  39 SW15      29.73S
$$



USA.gov is the U.S. government's official web portal to all federal, state and local government web resources and services.